| time (UTC) | temp C | wind direction | speed KPH | gust KPH | rain 1hr cm | rain 24hr cm | rain mn cm | humidity % | barometer mb |
| 20260502235733 | 12 | 58 | 3.2 | 4.8 | 0.00 | 0.00 | 0.03 | ||
| 20260502234235 | 13 | 39 | 1.6 | 0.0 | 0.00 | 0.00 | 0.03 | ||
| 20260502232736 | 12 | 104 | 0.0 | 0.0 | 0.00 | 0.00 | 0.03 | ||
| 20260502231237 | 8 | 162 | 0.0 | 0.0 | 0.00 | 0.00 | 0.03 | ||
| 20260502225739 | 8 | 169 | 3.2 | 4.8 | 0.03 | 0.00 | 0.03 | ||
| 20260502224240 | 8 | 127 | 1.6 | 1.6 | 0.03 | 0.00 | 0.03 | ||
| 20260502222742 | 8 | 173 | 0.0 | 0.0 | 0.03 | 0.00 | 0.03 | ||
| 20260502221243 | 8 | 204 | 1.6 | 3.2 | 0.03 | 0.00 | 0.03 | ||
| 20260502215745 | 7 | 107 | 6.4 | 8.0 | 0.00 | 0.00 | 0.03 | ||
| 20260502214246 | 7 | 96 | 3.2 | 0.0 | 0.00 | 0.00 | 0.03 | ||
| 20260502211248 | 6 | 15 | 9.7 | 12.9 | 0.00 | 0.00 | 0.00 | ||
| 20260502205749 | 6 | 39 | 9.7 | 8.0 | 0.00 | 0.00 | 0.00 | ||
| 20260502204250 | 9 | 34 | 11.3 | 9.7 | 0.00 | 0.00 | 0.00 | ||
| 20260502202751 | 13 | 20 | 8.0 | 8.0 | 0.00 | 0.00 | 0.00 | ||
| 20260502201253 | 15 | 75 | 9.7 | 11.3 | 0.00 | 0.00 | 0.00 | ||
| 20260502195753 | 16 | 39 | 0.0 | 4.8 | 0.00 | 0.00 | 0.00 | ||
| 20260502194254 | 16 | 31 | 0.0 | 0.0 | 0.00 | 0.00 | 0.00 | ||
| 20260502192755 | 16 | 1 | 1.6 | 0.0 | 0.00 | 0.00 | 0.00 | ||
| 20260502191256 | 17 | 134 | 0.0 | 0.0 | 0.00 | 0.00 | 0.00 | ||
| 20260502185757 | 17 | 134 | 0.0 | 0.0 | 0.00 | 0.00 | 0.00 | ||
| 20260502184258 | 18 | 32 | 0.0 | 0.0 | 0.00 | 0.00 | 0.00 | ||
| 20260502182759 | 18 | 97 | 0.0 | 0.0 | 0.00 | 0.00 | 0.00 | ||
| 20260502181300 | 17 | 69 | 1.6 | 0.0 | 0.00 | 0.00 | 0.00 | ||
| 20260502164308 | 14 | 127 | 0.0 | 0.0 | 0.00 | 0.00 | 0.00 | ||
| 20260502162809 | 14 | 156 | 3.2 | 4.8 | 0.00 | 0.00 | 0.00 | ||
| 20260502161313 | 12 | 97 | 0.0 | 0.0 | 0.00 | 0.00 | 0.00 | ||
| 20260502151315 | 10 | 32 | 8.0 | 1.6 | 0.00 | 0.00 | 0.00 | ||
| 20260502122831 | 4 | 124 | 3.2 | 6.4 | 0.00 | 0.00 | 0.00 | ||
| 20260502121334 | 4 | 118 | 4.8 | 3.2 | 0.00 | 0.00 | 0.00 | ||
| 20260502115836 | 4 | 129 | 6.4 | 9.7 | 0.00 | 0.00 | 0.00 | ||
| 20260502114335 | 3 | 113 | 3.2 | 0.0 | 0.00 | 0.00 | 0.00 | ||
| 20260502111338 | 3 | 101 | 4.8 | 3.2 | 0.00 | 0.00 | 0.00 | ||
| 20260502105840 | 3 | 120 | 4.8 | 4.8 | 0.00 | 0.00 | 0.00 | ||
| 20260502104341 | 3 | 117 | 6.4 | 8.0 | 0.00 | 0.00 | 0.00 | ||
| 20260502102843 | 3 | 115 | 4.8 | 6.4 | 0.00 | 0.00 | 0.00 | ||
| 20260502101344 | 4 | 111 | 4.8 | 3.2 | 0.00 | 0.00 | 0.00 | ||
| 20260502091351 | 4 | 110 | 1.6 | 0.0 | 0.00 | 0.00 | 0.00 | ||
| 20260502071404 | 4 | 125 | 3.2 | 4.8 | 0.00 | 0.00 | 0.00 | ||
| 20260502065906 | 4 | 129 | 6.4 | 4.8 | 0.00 | 0.00 | 0.00 | ||
| 20260502064407 | 4 | 101 | 4.8 | 11.3 | 0.00 | 0.00 | 0.00 | ||
| 20260502062909 | 5 | 118 | 4.8 | 4.8 | 0.00 | 0.00 | 0.00 | ||
| 20260502061411 | 4 | 122 | 4.8 | 8.0 | 0.00 | 0.00 | 0.00 | ||
| 20260502055913 | 4 | 124 | 8.0 | 3.2 | 0.00 | 0.00 | 0.00 | ||
| 20260502054414 | 4 | 111 | 8.0 | 12.9 | 0.00 | 0.00 | 0.00 | ||
| 20260502052916 | 5 | 82 | 8.0 | 8.0 | 0.00 | 0.00 | 0.00 | ||
| 20260502051418 | 4 | 96 | 9.7 | 11.3 | 0.00 | 0.00 | 0.00 | ||
| 20260502044421 | 5 | 103 | 8.0 | 9.7 | 0.00 | 0.00 | 0.00 | ||
| 20260502042923 | 4 | 111 | 9.7 | 4.8 | 0.00 | 0.00 | 0.00 | ||
| 20260502041425 | 3 | 110 | 8.0 | 3.2 | 0.00 | 0.00 | 0.00 | ||
| 20260502035927 | 3 | 139 | 6.4 | 9.7 | 0.00 | 0.00 | 0.00 | ||
| 20260502034428 | 4 | 103 | 11.3 | 11.3 | 0.00 | 0.00 | 0.00 | ||
| 20260502032930 | 3 | 69 | 12.9 | 9.7 | 0.00 | 0.00 | 0.00 | ||
| 20260502031431 | 4 | 101 | 9.7 | 8.0 | 0.00 | 0.00 | 0.00 | ||
| 20260502025933 | 4 | 103 | 12.9 | 11.3 | 0.00 | 0.00 | 0.00 | ||
| 20260502022936 | 4 | 125 | 11.3 | 8.0 | 0.00 | 0.00 | 0.00 | ||
| 20260502021437 | 4 | 84 | 12.9 | 17.7 | 0.00 | 0.00 | 0.00 | ||
| 20260502015939 | 4 | 83 | 11.3 | 9.7 | 0.00 | 0.00 | 0.00 | ||
| 20260502014440 | 4 | 153 | 9.7 | 3.2 | 0.00 | 0.00 | 0.00 | ||
| 20260502012942 | 4 | 68 | 8.0 | 8.0 | 0.00 | 0.00 | 0.00 | ||
| 20260502011443 | 4 | 177 | 8.0 | 11.3 | 0.00 | 0.00 | 0.00 | ||
| 20260502005945 | 3 | 84 | 9.7 | 14.5 | 0.00 | 0.00 | 0.00 | ||
| 20260502004446 | 3 | 101 | 12.9 | 16.1 | 0.00 | 0.00 | 0.00 | ||
| 20260502002948 | 5 | 127 | 8.0 | 14.5 | 0.00 | 0.00 | 0.00 |